Weather History for Ann Arbor, MI

Change the Weather History Date:

Friday, January 10, 2014

  Actual Average Record
Temperature  
Mean Temperature 29 °F -  
Max Temperature 37 °F 29 °F 46 °F (2012)
Min Temperature 21 °F 15 °F -4 °F (2004)
Degree Days  
Heating Degree Days 36    
Moisture  
Dew Point 30 °F    
Average Humidity 95    
Maximum Humidity 100    
Minimum Humidity 86    
Precipitation  
Precipitation 0.32 in - - ()
Sea Level Pressure  
Sea Level Pressure 30.05 in    
Wind  
Wind Speed 3 mph (SSE)    
Max Wind Speed 10 mph    
Max Gust Speed 17 mph    
Visibility 2 miles    
Events Fog , Rain , Snow    
Averages and records for this station are not official NWS values.
T = Trace of Precipitation, MM = Missing Value Source: NWS Daily Summary

Daily Weather History Graph

Daily Weather History Graph

Search for Another Location

Airport:

Trip Planner

Search our weather history database for the weather conditions in past years. The results will help you decide how hot, cold, wet, or windy it might be!

Date:

Astronomy

Jan. 10, 2014 Rise Set
Actual Time 8:02 AM EST 5:22 PM EST
Civil Twilight 7:31 AM EST 5:53 PM EST
Nautical Twilight 6:56 AM EST 6:28 PM EST
Astronomical Twilight 6:23 AM EST 7:02 PM EST
Moon 1:27 PM EST (1/10) 3:07 AM EST (1/10)
Length of Visible Light 10h 22m
Length of Day
9h 19m
Waxing Gibbous, 75% of the Moon is Illuminated
Jan 10
Waxing Gibbous
Jan 15
Full
Jan 24
Last Quarter
Jan 30
New
Feb 6
First Quarter

Hourly Weather History & Observations

Time (EST) Temp. Windchill Dew Point Humidity Pressure Visibility Wind Dir Wind Speed Gust Speed Precip Events Conditions
12:28 AM 21.2 °F 16.4 °F 19.4 °F 93% 30.25 in 2.0 mi SE 3.5 mph - 0.00 in Snow Light Snow
12:39 AM 21.2 °F - 19.4 °F 93% 30.24 in 1.5 mi Calm Calm - 0.00 in Snow Light Snow
12:53 AM 21.9 °F - 19.9 °F 92% 30.28 in 2.0 mi Calm Calm - 0.00 in Snow Light Snow
1:16 AM 23.0 °F - 21.2 °F 93% 30.22 in 1.8 mi Calm Calm - 0.01 in Snow Light Snow
1:25 AM 23.0 °F - 21.2 °F 93% 30.22 in 2.5 mi Calm Calm - 0.01 in Snow Light Snow
1:53 AM 24.1 °F - 21.0 °F 88% 30.25 in 2.5 mi Calm Calm - 0.01 in Snow Light Snow
2:06 AM 24.8 °F - 21.2 °F 86% 30.21 in 1.5 mi Calm Calm - 0.00 in Snow Light Snow
2:15 AM 24.8 °F - 21.2 °F 86% 30.21 in 2.5 mi Calm Calm - 0.00 in Snow Light Snow
2:36 AM 24.8 °F - 21.2 °F 86% 30.21 in 3.0 mi Calm Calm - 0.00 in   Overcast
2:53 AM 24.1 °F - 21.9 °F 91% 30.25 in 3.0 mi Calm Calm - 0.00 in   Overcast
3:30 AM 24.8 °F - 21.2 °F 86% 30.20 in 4.0 mi Calm Calm - N/A   Overcast
3:53 AM 25.0 °F - 23.0 °F 92% 30.24 in 3.0 mi Calm Calm - N/A   Overcast
4:53 AM 26.1 °F - 24.1 °F 92% 30.22 in 3.0 mi Calm Calm - N/A   Overcast
5:28 AM 28.4 °F - 26.6 °F 93% 30.17 in 2.5 mi Calm Calm - N/A   Overcast
5:53 AM 28.0 °F - 26.1 °F 92% 30.20 in 2.5 mi Calm Calm - N/A   Overcast
6:21 AM 28.4 °F - 26.6 °F 93% 30.16 in 1.8 mi Calm Calm - N/A   Overcast
6:28 AM 28.4 °F - 26.6 °F 93% 30.15 in 1.8 mi Calm Calm - N/A   Overcast
6:53 AM 28.9 °F - 27.0 °F 92% 30.19 in 1.2 mi Calm Calm - N/A   Overcast
7:19 AM 28.4 °F - 28.4 °F 100% 30.15 in 0.8 mi Calm Calm - N/A   Overcast
7:53 AM 30.0 °F 26.5 °F 28.9 °F 96% 30.19 in 0.8 mi South 3.5 mph - N/A   Overcast
8:53 AM 30.9 °F 25.2 °F 30.0 °F 96% 30.19 in 0.2 mi South 5.8 mph - N/A Fog Light Freezing Fog
9:53 AM 32.0 °F 28.7 °F 30.9 °F 96% 30.19 in 0.2 mi South 3.5 mph - N/A Fog Fog
10:49 AM 33.8 °F 27.7 °F 32.0 °F 93% 30.15 in 1.2 mi South 6.9 mph - N/A   Overcast
10:53 AM 33.1 °F 26.9 °F 32.0 °F 96% 30.19 in 1.8 mi South 6.9 mph - N/A   Overcast
11:11 AM 33.8 °F 27.0 °F 32.0 °F 93% 30.14 in 2.0 mi South 8.1 mph - N/A   Overcast
11:53 AM 34.0 °F 27.2 °F 33.1 °F 96% 30.14 in 2.5 mi South 8.1 mph - N/A   Overcast
12:53 PM 34.0 °F 27.2 °F 33.1 °F 96% 30.09 in 2.5 mi South 8.1 mph - N/A   Overcast
1:06 PM 35.6 °F 28.0 °F 33.8 °F 93% 30.06 in 3.0 mi South 10.4 mph - N/A   Overcast
1:16 PM 35.6 °F 28.6 °F 33.8 °F 93% 30.06 in 3.0 mi SSW 9.2 mph 17.3 mph N/A   Overcast
1:53 PM 35.1 °F 28.6 °F 33.1 °F 92% 30.06 in 3.0 mi South 8.1 mph - N/A   Overcast
2:05 PM 35.6 °F 29.9 °F 33.8 °F 93% 30.02 in 2.5 mi South 6.9 mph - N/A   Overcast
2:50 PM 35.6 °F 28.6 °F 33.8 °F 93% 29.98 in 1.8 mi SSE 9.2 mph - N/A   Overcast
2:53 PM 36.0 °F 28.5 °F 34.0 °F 93% 30.02 in 1.2 mi SSE 10.4 mph - N/A   Overcast
3:17 PM 35.6 °F 29.9 °F 35.6 °F 100% 29.98 in 1.8 mi SSE 6.9 mph - N/A   Overcast
3:36 PM 35.6 °F 30.7 °F 35.6 °F 100% 29.99 in 2.5 mi South 5.8 mph - N/A   Overcast
3:53 PM 36.0 °F 32.1 °F 35.1 °F 97% 30.01 in 2.5 mi South 4.6 mph - N/A   Overcast
4:40 PM 35.6 °F 29.2 °F 33.8 °F 93% 29.95 in 3.0 mi SSE 8.1 mph - N/A   Overcast
4:53 PM 36.0 °F 30.3 °F 34.0 °F 93% 29.97 in 3.0 mi SSE 6.9 mph - N/A   Overcast
5:53 PM 36.0 °F 29.6 °F 34.0 °F 93% 29.94 in 4.0 mi SE 8.1 mph - N/A   Overcast
6:48 PM 35.6 °F 29.9 °F 35.6 °F 100% 29.88 in 2.5 mi SE 6.9 mph - N/A   Overcast
6:53 PM 36.0 °F 30.3 °F 35.1 °F 97% 29.91 in 2.5 mi SSE 6.9 mph - N/A   Overcast
7:00 PM 35.6 °F 30.7 °F 35.6 °F 100% 29.88 in 2.5 mi SSE 5.8 mph - N/A   Overcast
7:23 PM 35.6 °F 31.7 °F 35.6 °F 100% 29.86 in 1.5 mi SSE 4.6 mph - N/A   Overcast
7:33 PM 35.6 °F 30.7 °F 35.6 °F 100% 29.86 in 1.0 mi SE 5.8 mph - 0.00 in   Overcast
7:45 PM 35.6 °F 30.7 °F 35.6 °F 100% 29.86 in 0.8 mi SSE 5.8 mph - 0.00 in   Overcast
7:53 PM 36.0 °F 30.3 °F 36.0 °F 100% 29.88 in 0.5 mi SE 6.9 mph - 0.01 in Fog , Rain Light Rain
8:13 PM 35.6 °F 30.7 °F 35.6 °F 100% 29.85 in 1.2 mi SSE 5.8 mph - 0.01 in Rain Light Rain
8:22 PM 35.6 °F 31.7 °F 35.6 °F 100% 29.84 in 1.8 mi SSE 4.6 mph - 0.02 in Rain Light Rain
8:30 PM 35.6 °F 31.7 °F 35.6 °F 100% 29.84 in 2.5 mi SSE 4.6 mph - 0.02 in Rain Light Rain
8:53 PM 37.0 °F 31.6 °F 36.0 °F 96% 29.85 in 2.0 mi SSE 6.9 mph - 0.05 in Rain Light Rain
9:10 PM 37.4 °F 32.8 °F 35.6 °F 93% 29.81 in 3.0 mi SSE 5.8 mph - 0.01 in Rain Light Rain
9:53 PM 37.0 °F 32.4 °F 36.0 °F 96% 29.81 in 4.0 mi SSE 5.8 mph - 0.07 in Rain Rain
10:53 PM 37.0 °F 33.3 °F 36.0 °F 96% 29.75 in 6.0 mi SSE 4.6 mph - 0.11 in Rain Light Rain
11:53 PM 37.9 °F 34.4 °F 37.0 °F 97% 29.68 in 5.0 mi SE 4.6 mph - 0.07 in Rain Light Rain